This is the latest recevied weather packets stored in our database for station/object VK4TW-13. If no packets are shown the sender has not sent any weather packets the latest 10 day(s).
| Time | Temp. | Humidity | Pressure | Rain* | Wind** | Luminosity | Snow |
|---|---|---|---|---|---|---|---|
| 1778231261 | 17.78° C | 99% | 1018.1 hPa | 0 mm | - | - | - |
| 1778230661 | 18.33° C | 96% | 1018 hPa | 0 mm | - | - | - |
| 1778230059 | 18.33° C | 95% | 1017.9 hPa | 0 mm | - | - | - |
| 1778229458 | 18.89° C | 94% | 1017.7 hPa | 0 mm | - | - | - |
| 1778228860 | 19.44° C | 90% | 1017.5 hPa | 0 mm | - | - | - |
| 1778228257 | 20° C | 90% | 1017.5 hPa | 0 mm | - | - | - |
| 1778227656 | 20° C | 88% | 1017.3 hPa | 0 mm | - | - | - |
| 1778227058 | 20.56° C | 86% | 1017.2 hPa | 0 mm | - | - | - |
| 1778226454 | 20.56° C | 84% | 1017 hPa | 0 mm | - | - | - |
| 1778225853 | 20.56° C | 81% | 1016.9 hPa | 0 mm | - | - | - |
| 1778225253 | 21.11° C | 78% | 1016.9 hPa | 0 mm | - | - | - |
| 1778224650 | 21.11° C | 71% | 1016.6 hPa | 0 mm | - | - | - |
| 1778224050 | 21.67° C | 66% | 1016.5 hPa | 0 mm | - | - | - |
| 1778223450 | 22.22° C | 62% | 1016.3 hPa | 0 mm | - | - | - |
| 1778222849 | 22.78° C | 58% | 1016.3 hPa | 0 mm | - | - | - |
| 1778222247 | 22.78° C | 53% | 1016.1 hPa | 0 mm | - | - | - |
| 1778221647 | 23.33° C | 49% | 1016 hPa | 0 mm | - | - | - |
| 1778221047 | 23.89° C | 44% | 1016 hPa | 0 mm | - | - | - |
| 1778220444 | 23.89° C | 37% | 1015.9 hPa | 0 mm | - | - | - |
| 1778219847 | 23.89° C | 38% | 1015.9 hPa | 0 mm | - | - | - |
| 1778219242 | 24.44° C | 38% | 1015.8 hPa | 0 mm | - | - | - |
| 1778218640 | 24.44° C | 37% | 1015.7 hPa | 0 mm | - | - | - |
| 1778218044 | 24.44° C | 40% | 1015.7 hPa | 0 mm | - | - | - |
| 1778217438 | 24.44° C | 40% | 1015.6 hPa | 0 mm | - | - | - |
| 1778216841 | 25° C | 36% | 1015.5 hPa | 0 mm | - | - | - |
* Rain since midnight (hover to see other rain measurements)
** Current wind speed in m/s (hover to see current wind gust speed)